{"data":{"norad_id":58114,"intl_designator":"2023-161T","name":"STARLINK-30572","alt_names":[],"object_type":"PAYLOAD","status":"ACTIVE","operator":null,"country":"US","launch_date":"2023-10-21","launch_site_code":"AFWTR","launch_vehicle":null,"mission":null,"orbit_class":"UNKNOWN","rcs_meters":null,"size_class":null,"mass_kg":null,"dimensions":null,"purposes":["comms"],"wikipedia_slug":null,"has_3d_model":false,"image_url":null,"decayed_at":null,"tle_current":{"epoch":"2026-09-20T22:34:54.252480Z","epoch_age_seconds":102413,"freshness":"FRESH","line1":"1 58114U 23161T   26263.94090570  .00001427  00000+0  53385-4 0  9996","line2":"2 58114  53.1611 337.3208 0001441  91.3586 268.7582 15.34387087164337","mean_motion":15.34387087,"eccentricity":0.0001441,"inclination_deg":53.1611,"raan_deg":337.3208,"arg_perigee_deg":91.3586,"mean_anomaly_deg":268.7582,"bstar":5.3385e-5,"rev_number":16433,"period_min":93.848547879496,"perigee_km":461.75585002433,"apogee_km":463.72739124279,"semimajor_km":6840.8786206336,"source":"CELESTRAK","updated_at":"2026-09-21T09:00:33.789540Z"}}}